Regional Weather Roundup
Issued by NWS Green Bay, WI

Home | Current Version | Previous Version | Text Only | Print | Product List | Glossary On
Versions: 1 2 3 4 5 6 7 8 9 10 11 12 13 14 15 16 17 18 19 20 21 22 23 24 25 26 27 28 29 30 31 32 33 34 35 36 37 38 39 40 41 42 43 44 45 46 47 48 49 50
000
ASUS43 KGRB 121711
RWRGRB

NORTH-CENTRAL AND NORTHEAST WISCONSIN REGIONAL WEATHER ROUNDUP
NATIONAL WEATHER SERVICE GREEN BAY WI
1100 AM CST TUE NOV 12 2019

WIZ005-009-010>012-018-019-121800-
NORTH CENTRAL WISCONSIN

CITY           SKY/WX    TMP DP  RH WIND       PRES   REMARKS
IRONWOOD       CLOUDY    10   1  67 W14       30.39S WCI  -6
MANITOWISH WTR PTSUNNY   10   0  66 W9        30.35F WCI  -4
ARBOR VITAE    FAIR      14   5  66 W6        30.35F WCI   5
EAGLE RIVER    PTSUNNY   11   1  66 NW9       30.34F WCI  -2
LAND O LAKES   CLOUDY    12   4  70 W7        30.34F WCI   1
RHINELANDER    FAIR      11   0  61 NW10      30.35F WCI  -3
PHILLIPS       FAIR       8  -2  65 CALM      30.38F
ANTIGO         FAIR      12   1  59 NW6       30.37F WCI   3
TOMAHAWK       FAIR      11   1  61 W6        30.39F WCI   2
MERRILL        FAIR      13   0  56 N6        30.41S WCI   4
$$

WIZ013-073-121800-
NORTHEAST WISCONSIN

CITY           SKY/WX    TMP DP  RH WIND       PRES   REMARKS
IRON MOUNTAIN  MIX PCPN  14   2  58 NW15      30.35R WCI  -1
MARINETTE      FAIR      17   2  51 NW12G21   30.41S WCI   4
OCONTO         FAIR      17   2  51 N9        30.43S WCI   5
$$

WIZ017-030-035>037-045-121800-
CENTRAL WISCONSIN

CITY           SKY/WX    TMP DP  RH WIND       PRES   REMARKS
MEDFORD        FAIR       9  -2  59 W6        30.40F WCI   0
WAUSAU         FAIR      12  -1  56 W12       30.41F WCI  -2
MOSINEE        MOSUNNY   12   0  57 W8        30.43F WCI   1
MARSHFIELD     FAIR      11  -1  58 W8        30.43F WCI  -1
WISC RAPIDS    FAIR      14  -2  49 NW12G17   30.47F WCI   0
STEVENS POINT  FAIR      11  -1  57 NW6       30.45F WCI   2
WAUPACA        FAIR      17   1  47 W10       30.46F WCI   5
SHAWANO        FAIR      17   2  52 W6G16     30.43F WCI   9
CLINTONVILLE   FAIR      16  -1  47 W10G18    30.44F WCI   3
WAUTOMA        FAIR      13   2  61 W7        30.48F WCI   3
$$

WIZ038-039-048-051-121800-
FOX VALLEY

CITY           SKY/WX    TMP DP  RH WIND       PRES   REMARKS
NWS GREEN BAY  FAIR      15   1  53 NW16G22   30.44F WCI  -1
APPLETON       SUNNY     14  -2  48 W14       30.43S WCI  -1
OSHKOSH        FAIR      14   2  58 NW12      30.45S WCI   0
FOND DU LAC    FAIR      17   2  51 NW13      30.46S WCI   4
$$

WIZ022-050-052-121800-
EAST CENTRAL WISCONSIN

CITY           SKY/WX    TMP DP  RH WIND       PRES   REMARKS
EPHRAIM        FAIR      18   4  55 NW13G18   30.36S WCI   4
WASHINGTON ISL PTSUNNY   19   5  52 NW12G20   30.35S WCI   7
STURGEON BAY   PTSUNNY   16   5  62 NW16G23   30.40S WCI   1
MANITOWOC      FAIR      16   3  56 NW14      30.44S WCI   2
SHEBOYGAN      FAIR      15   1  53 NW12      30.44S WCI   2
$$

LMZ563-521-522-541>543-121800-
LAKESHORE

STATION/POSITION TIME  TEMP    WIND        PRES    VSBY  WAVE
                       AIR SEA DIR/SP/G                  HT/PER
                 (UTC) (F)     (DEG/KT/KT) (MB)    (MI)  (FT/S)
SHEBOYGAN LKSHOR 1700   14     310/ 16/ 19 1032.4S
KEWAUNEE LKSHORE 1630   15     320/ 10/ 18 1029.4R
N MID LAKE BUOY  1650   21 48  330/ 16/ 21 1028.8S         4/ 5
SISTER BAY LKSHO 1557   21     330/ 21/ 25   N/A
CHAMBERS ISLAND  1640   18     270/ 16/ 21   N/A
MENOMINEE LKSHOR 1630   15 41  290/ 12/ 19 1029.1S
$$



USA.gov is the U.S. government's official web portal to all federal, state and local government web resources and services.